If you wish to contribute or participate in the discussions about articles you are invited to join SKYbrary as a registered user

 Actions

Arak Airport

From SKYbrary Wiki

OIHR
Airport
ICAO: OIHR – IATA: AJK
Summary
Name Arak Airport
Region Middle East
Territory Iran IR.gif
Location Mobarak Abad, Markazi
Serving Arak
Elevation 1,662.074 m
5,453 ft1,662.074 m
Coordinates 34° 8' 1.82" N, 49° 50' 33.95" E
Runways
Designator Length Width Surface ROPS
8/26 2990 m9,809.711 ft
45 m147.638 ft
ASP /


METAR
Observation OIHR 251030Z 28010KT 7000 FEW040 38/07 Q1017
Station Arak
Date/Time 25 June 2019 10:30:00
Wind direction 280°
Wind speed 10 kts
Lowest cloud amount few clouds
Temperature 38°C
Dew point 7°C
Humidity 15%
QNH 1017 hPa
Weather condition n/a

Airport serving Arak, Iran.

Climatology

Continental climate (Köppen climate classification Dsa).

Maps

Terrain

Loading map...

Airport Layout

Loading map...


Accidents & Serious Incidents at or in vicinity of OIHR

None on SKYbrary